"read_dt","SO2 (ppb)","flags","PMT voltage (V)","lamp voltage (V)","lamp intensity (Hz)","internal temp (C)","react chamber temp (C)","sample flow (l/min)","pres (mmHg)","SO2 bkg (ppb)","SO2 coefficient"
2014-06-10 00:00:00,1760E-3,5C000000,-0724,0845,12151,035.8,045.7,0.475,738.8,01.18,0.508
2014-06-10 00:01:00,1910E-3,5C000000,-0724,0843,12049,035.8,045.8,0.475,738.9,01.18,0.508
2014-06-10 00:02:00,1793E-3,5C000000,-0724,0844,12065,035.8,045.7,0.474,738.9,01.18,0.508
2014-06-10 00:03:00,1860E-3,5C000000,-0724,0844,12194,035.9,045.8,0.474,738.8,01.18,0.508
2014-06-10 00:04:00,1771E-3,5C000000,-0724,0843,12030,035.8,045.8,0.474,738.8,01.18,0.508
2014-06-10 00:05:00,1917E-3,5C000000,-0724,0844,11935,035.8,045.7,0.474,738.8,01.18,0.508
2014-06-10 00:06:00,1873E-3,5C000000,-0724,0844,11891,035.8,045.8,0.475,738.8,01.18,0.508
2014-06-10 00:07:00,1870E-3,5C000000,-0724,0844,11996,035.8,045.8,0.475,738.8,01.18,0.508
2014-06-10 00:08:00,1793E-3,5C000000,-0724,0844,12037,035.9,045.8,0.475,738.8,01.18,0.508
2014-06-10 00:09:00,1744E-3,5C000000,-0724,0844,12091,035.9,045.8,0.475,738.9,01.18,0.508
2014-06-10 00:10:00,1781E-3,5C000000,-0724,0844,12060,035.9,045.8,0.475,738.9,01.18,0.508
2014-06-10 00:11:00,1853E-3,5C000000,-0724,0845,12075,035.9,045.8,0.474,738.9,01.18,0.508
2014-06-10 00:12:00,1777E-3,5C000000,-0724,0844,12139,035.9,045.7,0.474,738.8,01.18,0.508
2014-06-10 00:13:00,1871E-3,5C000000,-0724,0845,12250,035.9,045.7,0.474,738.8,01.18,0.508
2014-06-10 00:14:00,1730E-3,5C000000,-0724,0844,12046,035.9,045.8,0.475,738.8,01.18,0.508
2014-06-10 00:15:00,1791E-3,5C000000,-0724,0844,12094,035.9,045.8,0.475,738.8,01.18,0.508
2014-06-10 00:16:00,2012E-3,5C000000,-0724,0844,12054,035.9,045.8,0.475,738.8,01.18,0.508
2014-06-10 00:17:00,1972E-3,5C000000,-0724,0844,11941,035.9,045.8,0.475,738.8,01.18,0.508
2014-06-10 00:18:00,1929E-3,5C000000,-0724,0845,12101,035.9,045.8,0.474,738.8,01.18,0.508
2014-06-10 00:19:00,1889E-3,5C000000,-0724,0845,12124,035.9,045.7,0.474,738.7,01.18,0.508
2014-06-10 00:20:00,1844E-3,5C000000,-0724,0844,12172,035.9,045.7,0.474,738.8,01.18,0.508
2014-06-10 00:21:00,1841E-3,5C000000,-0724,0843,12041,036.0,045.8,0.474,738.8,01.18,0.508
2014-06-10 00:22:00,1901E-3,5C000000,-0724,0845,12113,036.0,045.8,0.475,738.8,01.18,0.508
2014-06-10 00:23:00,1788E-3,5C000000,-0724,0845,12100,035.9,045.8,0.475,738.8,01.18,0.508
2014-06-10 00:24:00,1861E-3,5C000000,-0724,0845,12027,035.9,045.8,0.475,738.8,01.18,0.508
2014-06-10 00:25:00,1816E-3,5C000000,-0724,0843,12026,036.0,045.7,0.475,738.8,01.18,0.508
2014-06-10 00:26:00,1900E-3,5C000000,-0724,0844,12073,036.0,045.8,0.475,738.7,01.18,0.508
2014-06-10 00:27:00,1781E-3,5C000000,-0724,0845,12017,036.0,045.8,0.474,738.7,01.18,0.508
2014-06-10 00:28:00,1896E-3,5C000000,-0724,0843,12049,036.0,045.8,0.475,738.7,01.18,0.508
2014-06-10 00:29:00,1749E-3,5C000000,-0724,0844,12148,036.0,045.8,0.475,738.8,01.18,0.508
2014-06-10 00:30:00,1773E-3,5C000000,-0724,0844,12045,036.0,045.7,0.475,738.8,01.18,0.508
2014-06-10 00:31:00,1746E-3,5C000000,-0724,0844,11890,036.0,045.8,0.475,738.8,01.18,0.508
2014-06-10 00:32:00,1742E-3,5C000000,-0724,0845,11937,036.0,045.8,0.474,738.7,01.18,0.508
2014-06-10 00:33:00,1855E-3,5C000000,-0724,0844,12177,036.0,045.7,0.474,738.7,01.18,0.508
2014-06-10 00:34:00,1858E-3,5C000000,-0724,0844,12088,036.0,045.7,0.474,738.7,01.18,0.508
2014-06-10 00:35:00,1926E-3,5C000000,-0724,0844,12026,036.0,045.8,0.474,738.7,01.18,0.508
2014-06-10 00:36:00,1896E-3,5C000000,-0724,0844,12115,036.0,045.8,0.474,738.6,01.18,0.508
2014-06-10 00:37:00,1865E-3,5C000000,-0724,0843,12188,036.0,045.8,0.475,738.7,01.18,0.508
2014-06-10 00:38:00,1887E-3,5C000000,-0724,0844,12119,036.0,045.8,0.475,738.7,01.18,0.508
2014-06-10 00:39:00,1713E-3,5C000000,-0724,0843,12137,036.0,045.8,0.475,738.7,01.18,0.508
2014-06-10 00:40:00,1890E-3,5C000000,-0724,0843,12082,036.0,045.7,0.474,738.7,01.18,0.508
2014-06-10 00:41:00,1907E-3,5C000000,-0724,0844,12043,036.1,045.8,0.474,738.7,01.18,0.508
2014-06-10 00:42:00,1800E-3,5C000000,-0724,0843,12164,036.1,045.8,0.474,738.7,01.18,0.508
2014-06-10 00:43:00,1888E-3,5C000000,-0724,0844,12030,036.1,045.8,0.474,738.7,01.18,0.508
2014-06-10 00:44:00,1929E-3,5C000000,-0724,0845,11970,036.1,045.8,0.474,738.7,01.18,0.508
2014-06-10 00:45:00,1794E-3,5C000000,-0724,0843,11976,036.1,045.8,0.474,738.7,01.18,0.508
2014-06-10 00:46:00,1916E-3,5C000000,-0724,0844,11896,036.1,045.8,0.475,738.7,01.18,0.508
2014-06-10 00:47:00,1906E-3,5C000000,-0724,0845,11990,036.1,045.8,0.475,738.7,01.18,0.508
2014-06-10 00:48:00,1850E-3,5C000000,-0724,0845,11932,036.1,045.8,0.474,738.7,01.18,0.508
2014-06-10 00:49:00,1896E-3,5C000000,-0724,0844,12142,036.1,045.8,0.474,738.6,01.18,0.508
2014-06-10 00:50:00,1883E-3,5C000000,-0724,0845,12135,036.1,045.8,0.474,738.6,01.18,0.508
2014-06-10 00:51:00,1951E-3,5C000000,-0724,0845,11750,036.1,045.7,0.474,738.7,01.18,0.508
2014-06-10 00:52:00,1683E-3,5C000000,-0724,0844,12039,036.1,045.8,0.474,738.7,01.18,0.508
2014-06-10 00:53:00,1899E-3,5C000000,-0724,0845,11991,036.1,045.8,0.474,738.7,01.18,0.508
2014-06-10 00:54:00,1824E-3,5C000000,-0724,0844,12085,036.1,045.8,0.475,738.7,01.18,0.508
2014-06-10 00:55:00,1863E-3,5C000000,-0724,0845,11998,036.1,045.8,0.475,738.7,01.18,0.508
2014-06-10 00:56:00,1931E-3,5C000000,-0724,0844,12057,036.2,045.8,0.474,738.7,01.18,0.508
2014-06-10 00:57:00,1852E-3,5C000000,-0724,0844,11954,036.2,045.8,0.474,738.6,01.18,0.508
2014-06-10 00:58:00,1786E-3,5C000000,-0724,0846,11991,036.2,045.8,0.474,738.6,01.18,0.508
2014-06-10 00:59:00,1908E-3,5C000000,-0724,0844,11908,036.2,045.8,0.474,738.7,01.18,0.508
2014-06-10 01:00:00,1798E-3,5C000000,-0724,0845,12045,036.2,045.8,0.474,738.7,01.18,0.508
2014-06-10 01:01:00,1725E-3,5C000000,-0724,0844,12113,036.2,045.8,0.474,738.7,01.18,0.508
2014-06-10 01:02:00,2013E-3,5C000000,-0724,0844,12051,036.2,045.8,0.474,738.6,01.18,0.508
2014-06-10 01:03:00,1822E-3,5C000000,-0724,0845,11761,036.2,045.8,0.474,738.6,01.18,0.508
2014-06-10 01:04:00,1816E-3,5C000000,-0724,0846,12144,036.2,045.8,0.474,738.6,01.18,0.508
2014-06-10 01:05:00,1735E-3,5C000000,-0724,0844,11934,036.2,045.8,0.474,738.7,01.18,0.508
2014-06-10 01:06:00,1870E-3,5C000000,-0724,0846,11992,036.2,045.8,0.474,738.6,01.18,0.508
2014-06-10 01:07:00,1878E-3,5C000000,-0724,0844,12060,036.2,045.8,0.474,738.6,01.18,0.508
2014-06-10 01:08:00,1815E-3,5C000000,-0724,0844,12098,036.2,045.8,0.474,738.7,01.18,0.508
2014-06-10 01:09:00,1899E-3,5C000000,-0724,0844,11956,036.2,045.8,0.474,738.6,01.18,0.508
2014-06-10 01:10:00,1965E-3,5C000000,-0724,0845,11995,036.2,045.8,0.474,738.6,01.18,0.508
2014-06-10 01:11:00,1885E-3,5C000000,-0724,0845,12062,036.2,045.8,0.474,738.7,01.18,0.508
2014-06-10 01:12:00,1851E-3,5C000000,-0724,0845,12023,036.2,045.8,0.474,738.7,01.18,0.508
2014-06-10 01:13:00,1911E-3,5C000000,-0724,0844,12149,036.3,045.8,0.474,738.6,01.18,0.508
2014-06-10 01:14:00,1841E-3,5C000000,-0724,0845,12096,036.2,045.8,0.474,738.7,01.18,0.508
2014-06-10 01:15:00,1898E-3,5C000000,-0724,0845,11819,036.3,045.8,0.474,738.7,01.18,0.508
2014-06-10 01:16:00,1950E-3,5C000000,-0724,0844,12041,036.3,045.8,0.474,738.7,01.18,0.508
2014-06-10 01:17:00,1865E-3,5C000000,-0724,0844,12073,036.3,045.8,0.474,738.7,01.18,0.508
2014-06-10 01:18:00,1861E-3,5C000000,-0724,0845,12157,036.3,045.8,0.474,738.7,01.18,0.508
2014-06-10 01:19:00,1866E-3,5C000000,-0724,0845,11959,036.3,045.8,0.474,738.6,01.18,0.508
2014-06-10 01:20:00,1855E-3,5C000000,-0724,0845,12098,036.3,045.8,0.474,738.6,01.18,0.508
2014-06-10 01:21:00,1846E-3,5C000000,-0724,0844,11995,036.3,045.8,0.474,738.6,01.18,0.508
2014-06-10 01:22:00,1830E-3,5C000000,-0724,0846,12224,036.3,045.8,0.474,738.6,01.18,0.508
2014-06-10 01:23:00,1900E-3,5C000000,-0724,0844,11920,036.3,045.8,0.474,738.7,01.18,0.508
2014-06-10 01:24:00,1868E-3,5C000000,-0724,0843,12084,036.3,045.8,0.474,738.6,01.18,0.508
2014-06-10 01:25:00,1755E-3,5C000000,-0724,0846,12040,036.3,045.8,0.474,738.6,01.18,0.508
2014-06-10 01:26:00,1830E-3,5C000000,-0724,0845,12002,036.3,045.8,0.474,738.6,01.18,0.508
2014-06-10 01:27:00,1971E-3,5C000000,-0724,0844,12145,036.3,045.8,0.474,738.6,01.18,0.508
2014-06-10 01:28:00,2021E-3,5C000000,-0724,0844,12220,036.4,045.8,0.474,738.6,01.18,0.508
2014-06-10 01:29:00,1857E-3,5C000000,-0724,0845,11873,036.4,045.8,0.474,738.6,01.18,0.508
2014-06-10 01:30:00,1792E-3,5C000000,-0724,0844,12159,036.4,045.8,0.474,738.6,01.18,0.508
2014-06-10 01:31:00,1830E-3,5C000000,-0724,0845,12146,036.4,045.8,0.474,738.5,01.18,0.508
2014-06-10 01:32:00,1843E-3,5C000000,-0724,0844,12131,036.4,045.8,0.474,738.6,01.18,0.508
2014-06-10 01:33:00,1971E-3,5C000000,-0724,0845,12138,036.4,045.8,0.474,738.7,01.18,0.508
2014-06-10 01:34:00,1790E-3,5C000000,-0724,0844,11950,036.4,045.8,0.474,738.6,01.18,0.508
2014-06-10 01:35:00,1767E-3,5C000000,-0724,0844,11955,036.4,045.8,0.474,738.6,01.18,0.508
2014-06-10 01:36:00,1784E-3,5C000000,-0724,0845,11939,036.4,045.8,0.474,738.6,01.18,0.508
2014-06-10 01:37:00,1790E-3,5C000000,-0724,0844,12063,036.4,045.8,0.474,738.5,01.18,0.508
2014-06-10 01:38:00,1793E-3,5C000000,-0724,0845,12088,036.4,045.8,0.474,738.6,01.18,0.508
2014-06-10 01:39:00,1773E-3,5C000000,-0724,0846,12089,036.4,045.8,0.474,738.6,01.18,0.508
2014-06-10 01:40:00,1844E-3,5C000000,-0724,0845,12066,036.4,045.8,0.474,738.6,01.18,0.508
2014-06-10 01:41:00,1851E-3,5C000000,-0724,0845,12090,036.4,045.8,0.474,738.6,01.18,0.508
2014-06-10 01:42:00,1908E-3,5C000000,-0724,0845,12105,036.4,045.8,0.474,738.5,01.18,0.508
2014-06-10 01:43:00,1929E-3,5C000000,-0724,0845,12118,036.5,045.8,0.474,738.6,01.18,0.508
2014-06-10 01:44:00,1704E-3,5C000000,-0724,0845,12076,036.5,045.8,0.474,738.6,01.18,0.508
2014-06-10 01:45:00,1703E-3,5C000000,-0724,0845,12087,036.5,045.8,0.474,738.6,01.18,0.508
2014-06-10 01:46:00,1968E-3,5C000000,-0724,0845,11867,036.5,045.8,0.474,738.6,01.18,0.508
2014-06-10 01:47:00,1841E-3,5C000000,-0724,0845,11916,036.5,045.8,0.474,738.5,01.18,0.508
2014-06-10 01:48:00,1858E-3,5C000000,-0724,0845,12150,036.5,045.8,0.474,738.4,01.18,0.508
2014-06-10 01:49:00,1664E-3,5C000000,-0724,0844,12143,036.5,045.8,0.474,738.6,01.18,0.508
2014-06-10 01:50:00,1836E-3,5C000000,-0724,0845,12124,036.5,045.8,0.474,738.6,01.18,0.508
2014-06-10 01:51:00,1941E-3,5C000000,-0724,0845,11986,036.5,045.8,0.474,738.6,01.18,0.508
2014-06-10 01:52:00,1925E-3,5C000000,-0724,0846,11969,036.5,045.8,0.474,738.6,01.18,0.508
2014-06-10 01:53:00,1899E-3,5C000000,-0724,0845,12070,036.5,045.8,0.474,738.6,01.18,0.508
2014-06-10 01:54:00,1786E-3,5C000000,-0724,0844,12068,036.5,045.8,0.474,738.5,01.18,0.508
2014-06-10 01:55:00,1869E-3,5C000000,-0724,0845,12170,036.5,045.8,0.474,738.5,01.18,0.508
2014-06-10 01:56:00,1834E-3,5C000000,-0724,0845,12064,036.5,045.8,0.474,738.5,01.18,0.508
2014-06-10 01:57:00,1810E-3,5C000000,-0724,0845,12089,036.6,045.8,0.474,738.5,01.18,0.508
2014-06-10 01:58:00,1835E-3,5C000000,-0724,0845,11835,036.6,045.8,0.474,738.4,01.18,0.508
2014-06-10 01:59:00,1829E-3,5C000000,-0724,0845,12040,036.6,045.8,0.474,738.5,01.18,0.508
2014-06-10 02:00:00,2022E-3,5C000000,-0724,0846,12058,036.6,045.8,0.474,738.4,01.18,0.508
2014-06-10 02:01:00,2013E-3,5C000000,-0724,0846,12270,036.6,045.8,0.474,738.4,01.18,0.508
2014-06-10 02:02:00,1890E-3,5C000000,-0724,0847,12064,036.6,045.8,0.474,738.4,01.18,0.508
2014-06-10 02:03:00,1898E-3,5C000000,-0724,0845,11984,036.6,045.8,0.474,738.4,01.18,0.508
2014-06-10 02:04:00,1766E-3,5C000000,-0724,0845,11858,036.6,045.8,0.474,738.4,01.18,0.508
2014-06-10 02:05:00,1821E-3,5C000000,-0724,0845,12060,036.6,045.8,0.474,738.5,01.18,0.508
2014-06-10 02:06:00,1817E-3,5C000000,-0724,0845,12034,036.6,045.8,0.474,738.5,01.18,0.508
2014-06-10 02:07:00,1845E-3,5C000000,-0724,0845,11757,036.6,045.8,0.474,738.5,01.18,0.508
2014-06-10 02:08:00,1791E-3,5C000000,-0724,0845,11961,036.6,045.8,0.474,738.5,01.18,0.508
2014-06-10 02:09:00,1826E-3,5C000000,-0724,0846,11853,036.6,045.8,0.474,738.5,01.18,0.508
2014-06-10 02:10:00,1739E-3,5C000000,-0724,0846,12212,036.7,045.8,0.474,738.5,01.18,0.508
2014-06-10 02:11:00,1836E-3,5C000000,-0724,0844,12100,036.7,045.8,0.474,738.5,01.18,0.508
2014-06-10 02:12:00,1853E-3,5C000000,-0724,0845,12115,036.7,045.8,0.474,738.5,01.18,0.508
2014-06-10 02:13:00,1828E-3,5C000000,-0724,0846,12154,036.7,045.8,0.474,738.4,01.18,0.508
2014-06-10 02:14:00,1887E-3,5C000000,-0724,0844,11931,036.7,045.8,0.474,738.5,01.18,0.508
2014-06-10 02:15:00,1892E-3,5C000000,-0724,0845,12053,036.7,045.8,0.474,738.5,01.18,0.508
2014-06-10 02:16:00,1842E-3,5C000000,-0724,0845,11934,036.7,045.8,0.474,738.5,01.18,0.508
2014-06-10 02:17:00,1865E-3,5C000000,-0724,0844,12076,036.7,045.8,0.474,738.5,01.18,0.508
2014-06-10 02:18:00,1883E-3,5C000000,-0724,0845,11939,036.7,045.8,0.474,738.5,01.18,0.508
2014-06-10 02:19:00,1791E-3,5C000000,-0724,0845,12128,036.7,045.8,0.474,738.5,01.18,0.508
2014-06-10 02:20:00,1808E-3,5C000000,-0724,0845,12134,036.7,045.8,0.473,738.5,01.18,0.508
2014-06-10 02:21:00,1818E-3,5C000000,-0724,0846,12074,036.7,045.8,0.473,738.5,01.18,0.508
2014-06-10 02:22:00,1859E-3,5C000000,-0724,0845,11918,036.7,045.8,0.473,738.5,01.18,0.508
2014-06-10 02:23:00,1778E-3,5C000000,-0724,0844,12116,036.7,045.8,0.473,738.5,01.18,0.508
2014-06-10 02:24:00,1795E-3,5C000000,-0724,0845,11917,036.8,045.8,0.473,738.5,01.18,0.508
2014-06-10 02:25:00,1971E-3,5C000000,-0724,0845,12242,036.8,045.8,0.473,738.5,01.18,0.508
2014-06-10 02:26:00,1759E-3,5C000000,-0724,0845,12100,036.8,045.8,0.473,738.5,01.18,0.508
2014-06-10 02:27:00,1966E-3,5C000000,-0724,0845,12104,036.8,045.8,0.473,738.5,01.18,0.508
2014-06-10 02:28:00,1953E-3,5C000000,-0724,0844,12134,036.8,045.8,0.473,738.5,01.18,0.508
2014-06-10 02:29:00,1911E-3,5C000000,-0724,0845,11989,036.8,045.8,0.473,738.5,01.18,0.508
2014-06-10 02:30:00,1972E-3,5C000000,-0724,0846,12089,036.8,045.8,0.473,738.4,01.18,0.508
2014-06-10 02:31:00,1886E-3,5C000000,-0724,0846,11985,036.8,045.8,0.473,738.4,01.18,0.508
2014-06-10 02:32:00,1977E-3,5C000000,-0724,0845,11908,036.8,045.8,0.473,738.4,01.18,0.508
2014-06-10 02:33:00,1896E-3,5C000000,-0724,0846,12101,036.8,045.8,0.473,738.4,01.18,0.508
2014-06-10 02:34:00,1898E-3,5C000000,-0724,0845,12141,036.8,045.8,0.473,738.4,01.18,0.508
2014-06-10 02:35:00,1878E-3,5C000000,-0724,0846,11945,036.8,045.8,0.473,738.4,01.18,0.508
2014-06-10 02:36:00,1776E-3,5C000000,-0724,0846,12052,036.8,045.8,0.473,738.4,01.18,0.508
2014-06-10 02:37:00,1812E-3,5C000000,-0724,0845,12055,036.8,045.8,0.473,738.4,01.18,0.508
2014-06-10 02:38:00,1919E-3,5C000000,-0724,0845,12022,036.9,045.8,0.473,738.3,01.18,0.508
2014-06-10 02:39:00,1790E-3,5C000000,-0724,0846,12108,036.9,045.8,0.473,738.4,01.18,0.508
2014-06-10 02:40:00,1970E-3,5C000000,-0724,0846,12245,036.9,045.8,0.473,738.3,01.18,0.508
2014-06-10 02:41:00,1869E-3,5C000000,-0724,0845,12066,036.9,045.8,0.473,738.3,01.18,0.508
2014-06-10 02:42:00,1908E-3,5C000000,-0724,0845,12163,036.9,045.8,0.473,738.3,01.18,0.508
2014-06-10 02:43:00,1892E-3,5C000000,-0724,0845,11995,036.9,045.8,0.473,738.3,01.18,0.508
2014-06-10 02:44:00,1867E-3,5C000000,-0724,0846,12137,036.9,045.8,0.473,738.3,01.18,0.508
2014-06-10 02:45:00,1844E-3,5C000000,-0724,0846,12087,036.9,045.8,0.473,738.3,01.18,0.508
2014-06-10 02:46:00,1903E-3,5C000000,-0724,0845,12066,036.9,045.8,0.473,738.3,01.18,0.508
2014-06-10 02:47:00,1893E-3,5C000000,-0724,0844,12056,036.9,045.8,0.473,738.3,01.18,0.508
2014-06-10 02:48:00,1922E-3,5C000000,-0724,0845,12119,037.0,045.8,0.473,738.3,01.18,0.508
2014-06-10 02:49:00,1768E-3,5C000000,-0724,0846,12133,036.9,045.8,0.473,738.2,01.18,0.508
2014-06-10 02:50:00,1977E-3,5C000000,-0724,0844,11973,037.0,045.8,0.473,738.2,01.18,0.508
2014-06-10 02:51:00,1757E-3,5C000000,-0724,0845,12043,037.0,045.8,0.473,738.2,01.18,0.508
2014-06-10 02:52:00,1869E-3,5C000000,-0724,0844,11989,037.0,045.8,0.473,738.2,01.18,0.508
2014-06-10 02:53:00,1823E-3,5C000000,-0724,0845,12157,037.0,045.8,0.473,738.3,01.18,0.508
2014-06-10 02:54:00,1855E-3,5C000000,-0724,0845,11925,037.0,045.8,0.473,738.3,01.18,0.508
2014-06-10 02:55:00,1846E-3,5C000000,-0724,0845,12207,037.0,045.8,0.473,738.2,01.18,0.508
2014-06-10 02:56:00,1928E-3,5C000000,-0724,0844,11961,037.0,045.8,0.473,738.3,01.18,0.508
2014-06-10 02:57:00,1997E-3,5C000000,-0724,0845,12071,037.0,045.8,0.473,738.2,01.18,0.508
2014-06-10 02:58:00,1955E-3,5C000000,-0724,0845,12145,037.0,045.8,0.473,738.2,01.18,0.508
2014-06-10 02:59:00,1944E-3,5C000000,-0724,0845,11996,037.0,045.8,0.473,738.2,01.18,0.508
2014-06-10 03:00:00,1952E-3,5C000000,-0724,0845,12030,037.0,045.8,0.473,738.2,01.18,0.508
2014-06-10 03:01:00,1911E-3,5C000000,-0724,0845,12115,037.0,045.8,0.472,738.3,01.18,0.508
2014-06-10 03:02:00,1719E-3,5C000000,-0724,0844,12121,037.0,045.8,0.472,738.2,01.18,0.508
2014-06-10 03:03:00,1863E-3,5C000000,-0724,0845,11932,037.1,045.8,0.472,738.3,01.18,0.508
2014-06-10 03:04:00,1925E-3,5C000000,-0724,0845,12081,037.1,045.8,0.472,738.3,01.18,0.508
2014-06-10 03:05:00,1916E-3,5C000000,-0724,0844,12007,037.1,045.8,0.472,738.3,01.18,0.508
2014-06-10 03:06:00,1918E-3,5C000000,-0724,0844,12058,037.1,045.8,0.472,738.3,01.18,0.508
2014-06-10 03:07:00,1842E-3,5C000000,-0724,0844,12114,037.1,045.8,0.472,738.2,01.18,0.508
2014-06-10 03:08:00,1909E-3,5C000000,-0724,0846,12072,037.1,045.8,0.473,738.3,01.18,0.508
2014-06-10 03:09:00,1962E-3,5C000000,-0724,0846,12053,037.1,045.8,0.473,738.3,01.18,0.508
2014-06-10 03:10:00,1913E-3,5C000000,-0724,0845,12145,037.1,045.8,0.473,738.3,01.18,0.508
2014-06-10 03:11:00,1878E-3,5C000000,-0724,0845,12062,037.1,045.8,0.473,738.3,01.18,0.508
2014-06-10 03:12:00,1814E-3,5C000000,-0724,0844,11837,037.1,045.8,0.473,738.3,01.18,0.508
2014-06-10 03:13:00,1849E-3,5C000000,-0724,0845,12097,037.1,045.8,0.473,738.3,01.18,0.508
2014-06-10 03:14:00,1980E-3,5C000000,-0724,0846,11885,037.1,045.8,0.473,738.3,01.18,0.508
2014-06-10 03:15:00,1927E-3,5C000000,-0724,0845,12122,037.2,045.8,0.473,738.3,01.18,0.508
2014-06-10 03:16:00,1794E-3,5C000000,-0724,0846,12137,037.1,045.8,0.472,738.3,01.18,0.508
2014-06-10 03:17:00,1867E-3,5C000000,-0724,0846,12128,037.2,045.8,0.472,738.3,01.18,0.508
2014-06-10 03:18:00,1840E-3,5C000000,-0724,0846,12034,037.2,045.8,0.472,738.3,01.18,0.508
2014-06-10 03:19:00,1859E-3,5C000000,-0724,0846,12192,037.2,045.8,0.472,738.3,01.18,0.508
2014-06-10 03:20:00,1836E-3,5C000000,-0724,0846,11950,037.2,045.8,0.472,738.3,01.18,0.508
2014-06-10 03:21:00,1863E-3,5C000000,-0724,0845,12044,037.2,045.8,0.472,738.3,01.18,0.508
2014-06-10 03:22:00,1897E-3,5C000000,-0724,0846,12025,037.2,045.8,0.473,738.3,01.18,0.508
2014-06-10 03:23:00,1839E-3,5C000000,-0724,0845,12167,037.2,045.8,0.473,738.3,01.18,0.508
2014-06-10 03:24:00,1945E-3,5C000000,-0724,0846,12233,037.2,045.8,0.473,738.3,01.18,0.508
2014-06-10 03:25:00,1791E-3,5C000000,-0724,0845,12107,037.2,045.8,0.473,738.3,01.18,0.508
2014-06-10 03:26:00,1904E-3,5C000000,-0724,0846,12045,037.2,045.8,0.473,738.3,01.18,0.508
2014-06-10 03:27:00,1758E-3,5C000000,-0724,0846,11863,037.3,045.8,0.473,738.3,01.18,0.508
2014-06-10 03:28:00,1879E-3,5C000000,-0724,0846,12117,037.3,045.8,0.472,738.3,01.18,0.508
2014-06-10 03:29:00,2025E-3,5C000000,-0724,0846,12063,037.3,045.8,0.472,738.3,01.18,0.508
2014-06-10 03:30:00,1875E-3,5C000000,-0724,0845,12096,037.3,045.8,0.472,738.3,01.18,0.508
2014-06-10 03:31:00,1902E-3,5C000000,-0724,0846,12018,037.3,045.8,0.472,738.3,01.18,0.508
2014-06-10 03:32:00,1949E-3,5C000000,-0724,0846,12102,037.3,045.8,0.472,738.3,01.18,0.508
2014-06-10 03:33:00,1926E-3,5C000000,-0724,0846,11976,037.3,045.8,0.472,738.4,01.18,0.508
2014-06-10 03:34:00,1810E-3,5C000000,-0724,0846,11995,037.3,045.8,0.472,738.4,01.18,0.508
2014-06-10 03:35:00,1983E-3,5C000000,-0724,0845,12054,037.3,045.8,0.472,738.4,01.18,0.508
2014-06-10 03:36:00,1790E-3,5C000000,-0724,0845,12067,037.3,045.8,0.473,738.4,01.18,0.508
2014-06-10 03:37:00,1888E-3,5C000000,-0724,0846,12202,037.3,045.8,0.473,738.4,01.18,0.508
2014-06-10 03:38:00,1834E-3,5C000000,-0724,0845,12169,037.3,045.8,0.472,738.3,01.18,0.508
2014-06-10 03:39:00,1888E-3,5C000000,-0724,0846,12075,037.3,045.8,0.472,738.3,01.18,0.508
2014-06-10 03:40:00,1742E-3,5C000000,-0724,0846,12192,037.3,045.8,0.473,738.3,01.18,0.508
2014-06-10 03:41:00,1813E-3,5C000000,-0724,0845,12105,037.4,045.8,0.473,738.3,01.18,0.508
2014-06-10 03:42:00,1962E-3,5C000000,-0724,0845,12085,037.4,045.8,0.472,738.3,01.18,0.508
2014-06-10 03:43:00,1913E-3,5C000000,-0724,0845,12106,037.4,045.8,0.472,738.3,01.18,0.508
2014-06-10 03:44:00,1776E-3,5C000000,-0724,0845,12185,037.4,045.8,0.472,738.3,01.18,0.508
2014-06-10 03:45:00,1861E-3,5C000000,-0724,0845,11999,037.4,045.8,0.472,738.3,01.18,0.508
2014-06-10 03:46:00,1930E-3,5C000000,-0724,0845,12181,037.4,045.8,0.472,738.3,01.18,0.508
2014-06-10 03:47:00,1829E-3,5C000000,-0724,0845,12161,037.4,045.8,0.472,738.2,01.18,0.508
2014-06-10 03:48:00,1737E-3,5C000000,-0724,0844,12044,037.4,045.8,0.472,738.2,01.18,0.508
2014-06-10 03:49:00,1835E-3,5C000000,-0724,0845,12077,037.4,045.8,0.472,738.3,01.18,0.508
2014-06-10 03:50:00,1798E-3,5C000000,-0724,0846,12093,037.4,045.8,0.472,738.2,01.18,0.508
2014-06-10 03:51:00,1867E-3,5C000000,-0724,0844,12011,037.4,045.8,0.472,738.2,01.18,0.508
2014-06-10 03:52:00,1825E-3,5C000000,-0724,0845,12107,037.4,045.8,0.472,738.2,01.18,0.508
2014-06-10 03:53:00,1886E-3,5C000000,-0724,0845,11997,037.4,045.8,0.472,738.2,01.18,0.508
2014-06-10 03:54:00,1885E-3,5C000000,-0724,0846,11936,037.4,045.8,0.472,738.2,01.18,0.508
2014-06-10 03:55:00,1903E-3,5C000000,-0724,0845,12077,037.4,045.8,0.472,738.2,01.18,0.508
2014-06-10 03:56:00,1879E-3,5C000000,-0724,0846,12109,037.5,045.8,0.472,738.2,01.18,0.508
2014-06-10 03:57:00,1757E-3,5C000000,-0724,0846,12003,037.5,045.8,0.472,738.2,01.18,0.508
2014-06-10 03:58:00,1772E-3,5C000000,-0724,0845,11998,037.5,045.8,0.472,738.2,01.18,0.508
2014-06-10 03:59:00,1931E-3,5C000000,-0724,0846,12059,037.5,045.8,0.472,738.2,01.18,0.508
2014-06-10 04:00:00,1911E-3,5C000000,-0724,0844,12009,037.5,045.8,0.472,738.2,01.18,0.508
2014-06-10 04:01:00,1901E-3,5C000000,-0724,0846,12011,037.5,045.8,0.472,738.1,01.18,0.508
2014-06-10 04:02:00,1923E-3,5C000000,-0724,0845,12114,037.5,045.8,0.472,738.2,01.18,0.508
2014-06-10 04:03:00,1894E-3,5C000000,-0724,0844,11973,037.5,045.8,0.472,738.2,01.18,0.508
2014-06-10 04:04:00,1936E-3,5C000000,-0724,0845,12004,037.5,045.8,0.472,738.2,01.18,0.508
2014-06-10 04:05:00,1949E-3,5C000000,-0724,0845,12052,037.5,045.8,0.472,738.1,01.18,0.508
2014-06-10 04:06:00,1847E-3,5C000000,-0724,0846,11922,037.5,045.8,0.472,738.1,01.18,0.508
2014-06-10 04:07:00,1929E-3,5C000000,-0724,0844,12032,037.5,045.8,0.472,738.1,01.18,0.508
2014-06-10 04:08:00,2136E-3,5C000000,-0724,0846,12105,037.5,045.8,0.472,738.1,01.18,0.508
2014-06-10 04:09:00,1805E-3,5C000000,-0724,0845,12112,037.5,045.8,0.472,738.1,01.18,0.508
2014-06-10 04:10:00,1830E-3,5C000000,-0724,0845,12045,037.5,045.8,0.472,738.1,01.18,0.508
2014-06-10 04:11:00,1736E-3,5C000000,-0724,0845,12115,037.5,045.8,0.472,738.1,01.18,0.508
2014-06-10 04:12:00,2046E-3,5C000000,-0724,0845,12009,037.5,045.8,0.472,738.1,01.18,0.508
2014-06-10 04:13:00,1752E-3,5C000000,-0724,0845,12054,037.5,045.8,0.472,738.1,01.18,0.508
2014-06-10 04:14:00,1733E-3,5C000000,-0724,0845,12057,037.5,045.8,0.472,738.1,01.18,0.508
2014-06-10 04:15:00,1923E-3,5C000000,-0724,0845,12118,037.6,045.8,0.472,738.1,01.18,0.508
2014-06-10 04:16:00,1779E-3,5C000000,-0724,0845,12009,037.6,045.8,0.471,738.1,01.18,0.508
2014-06-10 04:17:00,1851E-3,5C000000,-0724,0845,11970,037.6,045.8,0.472,738.1,01.18,0.508
2014-06-10 04:18:00,1898E-3,5C000000,-0724,0845,12123,037.6,045.8,0.472,738.1,01.18,0.508
2014-06-10 04:19:00,1734E-3,5C000000,-0724,0845,12125,037.6,045.8,0.472,738.1,01.18,0.508
2014-06-10 04:20:00,1848E-3,5C000000,-0724,0846,11696,037.6,045.8,0.472,738.1,01.18,0.508